Printer-friendly version

IAU Minor Planet Center

Minor Planet Center

MPEC 2008-E88 : 2008 EA32

The following Minor Planet Electronic Circular may be linked-to from your own Web pages, but must not otherwise be redistributed electronically.


Read MPEC 2008-E87 Read MPEC 2008-E89


M.P.E.C. 2008-E88                                Issued 2008 Mar. 11, 16:43 UT

     The Minor Planet Electronic Circulars contain information on unusual
         minor planets and routine data on comets.  They are published
   on behalf of Commission 20 of the International Astronomical Union by the
          Minor Planet Center, Smithsonian Astrophysical Observatory,
                          Cambridge, MA 02138, U.S.A.

             Prepared using the Tamkin Foundation Computer Network

                              MPC@CFA.HARVARD.EDU
          URL http://www.cfa.harvard.edu/iau/mpc.html  ISSN 1523-6714

                                   2008 EA32

Observations:
     K08E32A* C2008 03 10.10250 01 57 20.05 +29 17 06.7          17.7 V EE088703
     K08E32A  C2008 03 10.10692 01 57 20.41 +29 17 18.3          17.9 V EE088703
     K08E32A  C2008 03 10.11133 01 57 20.70 +29 17 29.2          18.0 V EE088703
     K08E32A  C2008 03 10.11576 01 57 21.02 +29 17 39.9          17.9 V EE088703
     K08E32A  C2008 03 10.75889 01 58 08.77 +29 43 56.7          17.8 R EE088118
     K08E32A  C2008 03 10.76236 01 58 09.04 +29 44 04.5          17.5 R EE088118
     K08E32A  C2008 03 10.76588 01 58 09.28 +29 44 13.5          17.4 R EE088118
     K08E32A  C2008 03 10.76923 01 58 09.42 +29 44 21.0          17.5 R EE088118
     K08E32A  C2008 03 10.77269 01 58 09.74 +29 44 30.4          18.0 R EE088118
     K08E32A  C2008 03 10.77821 01 58 10.14 +29 44 43.0          18.0 R EE088118
     K08E32A  C2008 03 10.77962 01 58 10.19 +29 44 46.5          18.0 R EE088118
     K08E32A  C2008 03 10.79247 01 58 11.15 +29 45 18.0          18.0 V EE088B03
     K08E32A  C2008 03 10.79620 01 58 11.44 +29 45 27.2          17.5 V EE088B03
     K08E32A  C2008 03 10.79993 01 58 11.66 +29 45 35.3          17.9 V EE088B03
     K08E32A  C2008 03 10.80366 01 58 11.93 +29 45 44.9          17.8 V EE088B03
     K08E32A  C2008 03 11.10292 01 58 33.27 +29 57 57.1          17.9 V EE088703
     K08E32A  C2008 03 11.10665 01 58 33.52 +29 58 05.7          17.9 V EE088703
     K08E32A  C2008 03 11.10832 01 58 33.67 +29 58 09.3          18.0 V EE088G96
     K08E32A  C2008 03 11.11039 01 58 33.81 +29 58 14.0          17.5 V EE088703
     K08E32A  C2008 03 11.11213 01 58 33.92 +29 58 18.4          17.4 V EE088G96
     K08E32A  C2008 03 11.11411 01 58 34.03 +29 58 23.3          17.6 V EE088703
     K08E32A  C2008 03 11.11603 01 58 34.21 +29 58 27.6          17.9 V EE088G96
     K08E32A  C2008 03 11.11985 01 58 34.46 +29 58 37.0          17.9 V EE088G96
     K08E32A  C2008 03 11.12628 01 58 34.77 +29 58 53.0          18.1 R EE088854
     K08E32A  C2008 03 11.12915 01 58 35.25 +29 59 00.5          17.7 R EE088854

Observer details:
118 Modra.  Observers L. Kornos, J. Vilagi.  0.6-m f/5.5 reflector + CCD.
703 Catalina Sky Survey.  Observer A. Boattini.  Measurers E. C. Beshore,
    A. Boattini, G. J. Garradd, A. R. Gibbs, A. D. Grauer, R. E. Hill,
    R. A. Kowalski, S. M. Larson, R. H. McNaught.  0.68-m Schmidt + CCD.
854 Sabino Canyon Observatory, Tucson.  Observer J. E. McGaha.  0.36-m f/10.0
    Schmidt-Cassegrain + CCD.
B03 Alter Satzberg, Vienna.  Observer M. Pietschnig.  0.35-m f/5.8
    Schmidt-Cassegrain + CCD.
G96 Mt. Lemmon Survey.  Observer S. M. Larson.  Measurers E. C. Beshore,
    A. Boattini, G. J. Garradd, A. R. Gibbs, A. D. Grauer, R. E. Hill,
    R. A. Kowalski, S. M. Larson, R. H. McNaught.  1.5-m reflector + CCD.

Orbital elements:
2008 EA32                                                Earth MOID = 0.1774 AU
Epoch 2008 May 14.0 TT = JDT 2454600.5                  MPC
M   1.46170              (2000.0)            P               Q
n   1.98039767     Peri.  180.28379     +0.18948608     +0.87531734
a   0.6280118      Node   100.66978     -0.89996616     +0.33600326
e   0.2828931      Incl.   26.91723     -0.39262697     -0.34773748
P   0.50           H   16.3           G   0.15           U   9
Residuals in seconds of arc
080310 703  0.2-  0.6-    080310 118  0.2+  0.2-    080311 703  0.1+  0.5-
080310 703  0.3+  0.2+    080310 118  0.5-  0.1-    080311 G96  0.0   0.3-
080310 703  0.1-  0.3+    080310 B03  0.0   0.3+    080311 703  0.4-  0.1-
080310 703  0.2-  0.2+    080310 B03  0.3+  0.5+    080311 G96  0.2+  0.4-
080310 118  0.3+  0.2+    080310 B03  0.3-  0.4-    080311 G96  0.1+  0.1-
080310 118  0.6+  0.4-    080310 B03  0.3-  0.2+    080311 854  1.7-  0.5+
080310 118  0.4+  0.1+    080311 703  0.2-  0.4+    080311 854  1.9+  1.1+
080310 118  0.8-  0.5-    080311 703  0.3-  0.1+
080310 118  0.1+  0.5+    080311 G96  0.1+  0.3-

Ephemeris:
2008 EA32                a,e,i = 0.63, 0.28, 27                  Q = 0.8057
Date    TT    R. A. (2000) Decl.     Delta      r     Elong.  Phase     V
2008 03 05    01 50.06   +25 37.0    0.664    0.776    51.3    86.8    17.9
2008 03 15    02 02.59   +32 29.1    0.655    0.742    48.2    90.6    17.9
2008 03 25    02 06.35   +37 48.1    0.636    0.696    43.9    96.9    18.0

Sonia Keys                   (C) Copyright 2008 MPC           M.P.E.C. 2008-E88

Read MPEC 2008-E87 Read MPEC 2008-E89


Our Web policy. Index to the CBAT/MPC/ICQ pages.


Valid HTML 4.01!